Location: Eaton Estates
(41.3089°N, 82.0057°W)
Time: 16:22:20
(UTC+00:00)

Oscar 19 - Visible Passes

Search period start: 20 March 2023 00:00
Search period end: 30 March 2023 00:00
Orbit: 772 x 790 km, 98.8° (Epoch: 20 March)

Date Brightness Start Highest point End Pass type
(mag) Time Alt. Az. Time Alt. Az. Time Alt. Az.
20 Mar 10.8 09:26:52 10° NNE 09:32:00 69° ESE 09:35:34 20° S visible
21 Mar 12.1 08:55:05 10° NNE 08:59:44 34° E 09:03:12 16° SSE visible
21 Mar 11.5 10:34:29 10° N 10:38:53 29° WNW 10:43:16 10° SW visible
22 Mar 13.1 08:24:00 10° NE 08:27:19 17° E 08:30:37 10° SE visible
22 Mar 10.7 10:01:54 10° N 10:06:55 57° WNW 10:11:23 13° SSW visible
23 Mar 10.8 09:29:40 10° NNE 09:34:49 73° ESE 09:39:01 16° S visible
24 Mar 12.0 08:57:50 10° NNE 09:02:33 36° E 09:06:39 13° SSE visible
24 Mar 11.6 10:37:21 10° N 10:41:40 28° WNW 10:46:00 10° WSW visible
25 Mar 13.0 08:26:41 10° NE 08:30:10 18° E 08:33:37 10° SE visible
25 Mar 10.8 10:04:43 10° N 10:09:44 54° WNW 10:14:44 10° SSW visible
26 Mar 10.7 09:32:28 10° NNE 09:37:38 77° ESE 09:42:26 12° S visible
27 Mar 11.9 09:00:36 10° NNE 09:05:23 38° E 09:10:04 10° SSE visible
27 Mar 11.6 10:40:12 10° N 10:44:28 27° WNW 10:48:43 10° WSW visible
28 Mar 13.0 08:29:22 10° NE 08:32:59 19° E 08:36:35 10° SE visible
28 Mar 10.8 10:07:32 10° N 10:12:31 51° WNW 10:17:30 10° SW visible
29 Mar 10.7 09:35:16 10° NNE 09:40:26 81° ESE 09:45:36 10° SSW visible
